FW1140 Weather Reports


time (UTC)temp
C
wind
direction
speed
KPH
gust
KPH
rain 1hr
cm
rain 24hr
cm
rain mn
cm
humidity
%
barometer
mb
20260904043020 25 229 6.4 12.9 0.00 0.00 0.00 72 1002.9
20260904041554 26 224 8.0 17.7 0.00 0.00 0.00 71 1002.9
20260904040014 26 192 8.0 16.1 0.00 0.00 0.00 70 1002.8
20260904034546 26 179 8.0 19.3 0.00 0.00 0.00 69 1002.7
20260904033010 26 208 8.0 17.7 0.00 0.00 0.00 70 1002.7
20260904031530 26 176 8.0 17.7 0.00 0.00 0.00 69 1002.6
20260904030115 26 134 8.0 17.7 0.00 0.00 0.00 70 1002.5
20260904024558 25 193 6.4 16.1 0.00 0.00 0.00 71 1002.5
20260904023030 25 243 6.4 14.5 0.00 0.00 0.00 71 1002.4
20260904021523 25 158 4.8 11.3 0.00 0.00 0.00 73 1002.1
20260904020049 25 205 6.4 12.9 0.00 0.00 0.00 73 1002.1
20260904014505 25 224 6.4 11.3 0.00 0.00 0.00 72 1001.8
20260904013049 25 178 4.8 11.3 0.00 0.00 0.00 71 1001.6
20260904011551 25 190 4.8 9.7 0.00 0.00 0.00 68 1001.6
20260904010026 26 205 6.4 11.3 0.00 0.00 0.00 64 1001.5
20260904004523 27 221 6.4 16.1 0.00 0.00 0.00 61 1001.4
20260904003049 28 158 6.4 16.1 0.00 0.00 0.00 59 1001.3
20260904001510 29 234 8.0 16.1 0.00 0.00 0.00 58 1001.3
20260904000038 30 190 8.0 19.3 0.00 0.00 0.00 56 1001.2
20260903234538 31 201 3.2 9.7 0.00 0.00 0.00 59 1001.1
20260903233003 31 179 4.8 11.3 0.00 0.00 0.00 55 1000.9
20260903231515 32 176 6.4 12.9 0.00 0.00 0.00 55 1000.8
20260903230028 32 209 8.0 17.7 0.00 0.00 0.00 54 1000.7
20260903224528 32 226 8.0 14.5 0.00 0.00 0.00 56 1000.7
20260903223057 33 225 8.0 17.7 0.00 0.00 0.00 55 1000.7
20260903221512 33 205 9.7 19.3 0.00 0.00 0.00 53 1000.5
20260903220015 33 193 8.0 16.1 0.00 0.00 0.00 53 1000.4
20260903214533 33 196 8.0 16.1 0.00 0.00 0.00 52 1000.4
20260903213033 34 165 6.4 16.1 0.00 0.00 0.00 51 1000.4
20260903211512 33 174 8.0 19.3 0.00 0.00 0.00 53 1000.3
20260903210021 33 170 9.7 20.9 0.00 0.00 0.00 52 1000.3
20260903204546 -17 0.0 0.0 0.00 0.00 0.00 1000.3
20260903203011 33 165 11.3 19.3 0.00 0.00 0.00 54 1000.2
20260903201539 33 127 9.7 20.9 0.00 0.00 0.00 56 1000.5
20260903200035 33 146 11.3 20.9 0.00 0.00 0.00 54 1000.7
20260903194554 33 154 9.7 17.7 0.00 0.00 0.00 55 1000.8
20260903193043 33 153 9.7 14.5 0.00 0.00 0.00 55 1000.7
20260903191512 32 127 8.0 20.9 0.00 0.00 0.00 55 1000.6
20260903190017 32 140 9.7 17.7 0.00 0.00 0.00 57 1000.7
20260903184612 31 129 9.7 19.3 0.00 0.00 0.00 58 1000.9
20260903183043 31 118 8.0 12.9 0.00 0.00 0.00 59 1001.1
20260903181546 31 143 6.4 12.9 0.00 0.00 0.00 59 1001.2
20260903180006 31 122 8.0 12.9 0.00 0.00 0.00 61 1001.4
20260903174514 31 71 1.6 8.0 0.00 0.00 0.00 60 1001.5
20260903173057 29 138 4.8 9.7 0.00 0.00 0.00 65 1001.8
20260903171556 30 203 4.8 12.9 0.00 0.00 0.00 61 1002.3
20260903170013 30 146 3.2 8.0 0.00 0.00 0.00 62 1002.6
20260903164608 28 128 1.6 4.8 0.00 0.00 0.00 65 1002.6
20260903163103 28 123 6.4 9.7 0.00 0.00 0.00 67 1002.5
20260903161537 28 151 4.8 12.9 0.00 0.00 0.00 68 1002.4
20260903160039 28 155 3.2 8.0 0.00 0.00 0.00 69 1002.3
20260903154552 27 126 3.2 8.0 0.00 0.00 0.00 76 1002.3
20260903153007 26 155 1.6 8.0 0.00 0.00 0.00 78 1002.3
20260903151532 25 128 1.6 6.4 0.00 0.00 0.00 83 1002.4
20260903150011 23 155 3.2 8.0 0.00 0.00 0.00 93 1002.9
20260903144540 21 212 0.0 4.8 0.00 0.00 0.00 95 1003.2
20260903143045 21 108 1.6 8.0 0.00 0.00 0.00 95 1003.0
20260903141606 21 139 6.4 12.9 0.00 0.00 0.00 95 1003.0
20260903140047 20 134 6.4 12.9 0.00 0.00 0.00 95 1002.8
20260903134548 20 132 6.4 14.5 0.00 0.00 0.00 95 1002.8
20260903133022 20 110 3.2 6.4 0.00 0.00 0.00 95 1002.7
20260903131527 20 82 1.6 6.4 0.00 0.00 0.00 95 1002.8
20260903124509 19 356 0.0 1.6 0.00 0.00 0.00 95 1003.4
20260903123030 19 356 0.0 1.6 0.00 0.00 0.00 95 1003.3
20260903121549 19 356 0.0 1.6 0.00 0.00 0.00 95 1003.5
20260903120112 19 356 0.0 1.6 0.00 0.00 0.00 95 1003.4
20260903114556 19 356 0.0 3.2 0.00 0.00 0.00 95 1003.3
20260903113101 19 356 1.6 4.8 0.00 0.00 0.00 95 1003.3
20260903111515 19 356 0.0 3.2 0.00 0.00 0.00 95 1003.3
20260903110048 19 356 1.6 4.8 0.00 0.00 0.00 95 1003.3
20260903104552 19 356 0.0 1.6 0.00 0.00 0.00 94 1003.5
20260903103049 19 356 0.0 0.0 0.00 0.00 0.00 94 1003.6
20260903101602 19 356 0.0 0.0 0.00 0.00 0.00 94 1003.7
20260903100003 18 356 0.0 1.6 0.00 0.00 0.00 94 1003.5
20260903094544 18 356 0.0 0.0 0.00 0.00 0.00 94 1003.3
20260903093033 18 356 0.0 3.2 0.00 0.00 0.00 94 1003.7
20260903091551 18 356 0.0 3.2 0.00 0.00 0.00 94 1004.0
20260903090050 18 356 0.0 4.8 0.00 0.00 0.00 94 1004.0
20260903084540 18 356 0.0 3.2 0.00 0.00 0.00 94 1004.1
20260903083032 18 356 0.0 3.2 0.00 0.00 0.00 94 1004.3
20260903081603 18 356 0.0 3.2 0.00 0.00 0.00 94 1004.0
20260903080026 18 356 0.0 1.6 0.00 0.00 0.00 94 1004.2
20260903074510 18 356 0.0 3.2 0.00 0.00 0.00 93 1004.3
20260903073043 18 260 1.6 4.8 0.00 0.00 0.00 94 1004.5
20260903071540 18 332 0.0 4.8 0.00 0.00 0.00 93 1004.6
20260903070036 18 337 0.0 3.2 0.00 0.00 0.00 93 1004.7
20260903064516 18 324 0.0 0.0 0.00 0.00 0.00 93 1004.7
20260903063028 18 324 0.0 0.0 0.00 0.00 0.00 92 1004.8
20260903061509 18 323 1.6 3.2 0.00 0.00 0.00 92 1004.9
20260903060022 19 142 0.0 3.2 0.00 0.00 0.00 91 1005.0
20260903054509 20 142 0.0 0.0 0.00 0.00 0.00 91 1004.9
20260903053045 20 142 1.6 4.8 0.00 0.00 0.00 92 1005.0
20260903051539 20 153 1.6 4.8 0.00 0.00 0.00 92 1005.0
20260903050027 20 82 0.0 3.2 0.00 0.00 0.00 92 1005.3
20260903044559 20 82 0.0 0.0 0.00 0.00 0.00 92 1005.4